#timestamp,LO_Frequency,Hit,StdDev 
1635692415.8,286046999.9,N
1635692435.6,286046998.2,P
1635692455.4,286046996.7,P
1635692475.3,286046996.7,N
1635692495.1,286046996.5,N
1635692515.8,286046996.6,N
1635692535.7,286046997.2,N
1635692555.5,286046997.4,N
1635692575.4,286046995.5,Y
1635692595.2,286046996.6,P
1635692615.0,286047002.4,P
1635692615.9,286047002.4,N
1635692635.8,286047003.7,N
1635692655.6,286047001.4,N
1635692675.4,286047002.6,N
1635692695.3,286047000.7,N
1635692715.1,286047001.1,N
1635692735.9,286047001.2,N
1635692755.7,286046999.7,N
1635692775.5,286047002.4,N
1635692795.4,286047004.2,N
1635692815.2,286047002.2,N
1635692835.0,286046999.7,N
1635692835.9,286046999.7,N
1635692855.8,286046999.1,N
1635692875.6,286047000.1,N
1635692895.5,286047002.1,N
1635692915.3,286046999.4,N
1635692935.1,286046998.1,N
1635692955.9,286046996.6,N
1635692975.7,286046997.7,N
1635692995.5,286046997.9,N
1635693015.4,286046995.3,N
1635693035.2,286046998.0,N
1635693055.1,286046994.9,N
1635693056.0,286046994.9,N
1635693075.8,286046995.2,N
1635693095.6,286046997.5,N
1635693115.5,286046995.1,N
1635693135.3,286046993.3,N
1635693155.2,286046996.4,N
1635693175.9,286046994.8,N
1635693195.7,286046992.1,N
1635693215.6,286046994.5,N
1635693235.4,286046996.3,N
1635693255.2,286046993.4,N
1635693275.1,286046996.4,N
1635693276.0,286046996.4,N
1635693295.8,286046995.9,N
1635693315.7,286046997.4,N
1635693335.5,286046999.6,N
1635693355.3,286046997.0,N
1635693375.2,286046997.2,N
1635693395.0,286046997.6,N
1635693395.9,286046997.6,N
1635693415.8,286046995.1,N
1635693435.6,286046997.9,N
1635693455.4,286046999.2,N
1635693475.3,286047000.2,N
1635693495.1,286047000.3,N
1635693515.8,286047000.5,N
1635693535.7,286047000.9,N
1635693555.5,286047000.3,N
1635693575.4,286047000.9,N
1635693595.2,286047001.1,N
1635693615.0,286047001.6,N
1635693615.9,286047001.6,N
1635693635.8,286047000.2,N
1635693655.6,286047002.6,N
1635693675.4,286047000.9,N
1635693695.3,286047002.2,N
1635693715.1,286047000.3,N
1635693735.9,286046998.1,N
1635693755.7,286047000.7,N
1635693775.5,286046998.7,N
1635693795.4,286046996.9,N
1635693815.2,286046997.8,N
1635693835.0,286046997.6,N
1635693835.9,286046997.6,N
1635693855.8,286046997.3,N
1635693875.6,286046995.3,N
1635693895.5,286046995.2,N
1635693915.3,286046995.0,N
1635693935.1,286046996.2,N
1635693955.9,286046997.9,N
1635693975.7,286046996.4,N
1635693995.6,286046995.5,N
1635694015.4,286046997.7,N
1635694035.2,286046996.8,N
1635694055.1,286046997.9,N
1635694056.0,286046997.9,N
1635694075.8,286046995.3,N
1635694095.6,286046996.0,N
1635694115.5,286046999.2,N
1635694135.3,286046997.7,N
1635694155.2,286046999.4,N
1635694175.9,286046999.5,N
1635694195.7,286046996.5,N
1635694215.6,286046997.0,N
1635694235.4,286046997.2,N
1635694255.2,286046995.3,N
1635694275.1,286046997.7,N
1635694276.0,286046997.7,N
1635694295.8,286046999.1,N
1635694315.7,286046999.4,N
1635694335.5,286046998.0,N
1635694355.3,286046996.3,N
1635694375.2,286046993.4,Y
1635694395.0,286046997.1,P
1635694395.9,286046997.1,P
1635694415.8,286046997.0,P
1635694435.6,286046996.6,Y
1635694455.4,286047000.7,P
1635694475.3,286047000.8,N
1635694495.1,286046998.8,N
1635694515.8,286046999.4,N
1635694535.7,286046996.8,N
1635694555.5,286046996.8,N
1635694575.4,286046999.6,N
1635694595.2,286047001.1,N
1635694615.0,286047000.7,N
1635694615.9,286047000.7,N
1635694635.8,286046999.9,N
1635694655.6,286047000.4,N
1635694675.4,286046999.0,N
1635694695.3,286046997.3,N
1635694715.1,286046996.6,N
1635694735.9,286046996.6,N
1635694755.7,286046997.6,N
1635694775.5,286046997.0,N
1635694795.4,286046998.4,N
1635694815.2,286047002.2,N
1635694835.1,286047003.1,N
1635694836.0,286047003.1,N
1635694855.8,286047007.0,Y
1635694875.6,286047004.9,P
1635694895.5,286047006.8,N
1635694915.3,286047003.6,N
1635694935.1,286047005.7,N
1635694955.9,286047007.2,N
1635694975.7,286047006.8,N
1635694995.6,286047004.5,N
1635695015.4,286047003.5,N
1635695035.2,286047004.3,N
1635695055.1,286047005.9,N
1635695056.0,286047005.9,N
1635695075.8,286047005.5,N
1635695095.6,286047005.5,N
1635695115.5,286047004.0,N
1635695135.3,286047002.3,N
1635695155.2,286047003.5,N
1635695175.9,286047002.5,N
1635695195.7,286047002.9,N
1635695215.6,286047004.0,N
1635695235.4,286047003.2,N
1635695255.2,286047003.6,N
1635695275.1,286047004.2,N
1635695276.0,286047004.2,N
1635695295.8,286047002.9,N
1635695315.7,286047004.4,N
1635695335.5,286047000.3,N
1635695355.3,286047000.3,N
1635695375.2,286046998.5,N
1635695395.0,286047000.0,N
1635695395.9,286047000.0,N
1635695415.8,286047003.1,N
1635695435.6,286047003.1,N
1635695455.4,286047001.4,N
1635695475.3,286047000.1,N
1635695495.1,286047000.6,N
1635695515.8,286046996.7,N
1635695535.7,286046999.5,N
1635695555.5,286046998.1,N
1635695575.4,286046998.8,N
1635695595.2,286046999.4,N
1635695615.0,286046997.2,N
1635695615.9,286046997.2,N
1635695635.8,286046996.6,N
1635695655.6,286046999.4,N
1635695675.4,286046997.2,N
1635695695.3,286046996.2,N
1635695715.1,286046995.7,N
1635695735.9,286046996.4,N
1635695755.7,286046993.5,N
1635695775.5,286046994.6,N
1635695795.4,286046996.3,N
1635695815.2,286046994.8,N
1635695835.0,286046993.8,N
1635695835.9,286046993.8,N
1635695855.8,286046996.3,N
1635695875.6,286046993.7,N
1635695925.5,286046994.4,E
1635695935.4,286046997.4,N
1635695955.2,286047000.9,P
1635695975.1,286046998.2,N
1635695976.0,286046998.2,N
1635695995.8,286046998.4,N
